Regional Weather Roundup
Issued by NWS Upton, NY

Current Version | Previous Version | Graphics & Text | Print | Product List | Glossary Off
Versions: 1 2 3 4 5 6 7 8 9 10 11 12 13 14 15 16 17 18 19 20 21 22 23 24 25 26 27 28 29 30 31 32 33 34 35 36 37 38 39 40 41 42 43 44 45 46 47 48 49 50

455
ASUS41 KOKX 201308
RWROKX

Regional Weather Roundup
National Weather Service New York NY
800 AM EST SAT JAN 20 2018

Note: "FAIR" indicates few or no clouds below 12,000 feet with no
significant weather and/or obstructions to visibility.

NYZ071-072-176-178-NJZ106-104-201400-
New York City Metro Area

CITY           SKY/WX    TMP DP  RH WIND       PRES   REMARKS
Central Park   FAIR      40  21  46 W10G21    29.89R WCI  33
Bronx Bot Gard   N/A     37  21  52 SW5       29.88S WCI  34
Bronx Lehman C   N/A     39  23  52 SW7         N/A  WCI  34
LaGuardia Arpt FAIR      40  21  46 SW9G23    29.87R WCI  34
Queens College   N/A     39  23  52 W13         N/A  WCI  32
Kennedy Intl   MOCLDY    37  24  59 SW17      29.89S WCI  27
Breezy Point     N/A     36 N/A N/A W8G14       N/A  WCI  29
Brooklyn Coll    N/A     39  23  52 SW13        N/A  WCI  32
Staten Island    N/A     37  23  56 SW10        N/A  WCI  30
Newark/Liberty MOCLDY    34  21  59 SW8       29.88S WCI  27
Teterboro      FAIR      35  22  58 S7        29.87R WCI  29
$$

NYZ177-179-078>081-201400-
Long Island New York

CITY           SKY/WX    TMP DP  RH WIND       PRES   REMARKS
Jones Beach      N/A     39 N/A N/A SW13G18     N/A  WCI  32
Wantagh          N/A     37  28  70 SW10        N/A  WCI  30
Matinecock Pt    N/A     37 N/A N/A SW17        N/A  WCI  28
Farmingdale    FAIR      37  24  59 W12       29.87S WCI  29
MacArthur/ISP  MOCLDY    39  25  57 SW14      29.85R WCI  31
Shirley        FAIR      39  26  59 SW16G23   29.87R WCI  30
Mt Sinai Harb    N/A    N/A N/A N/A SW6G12      N/A
Westhampton    FAIR      40  25  55 SW17G24   29.87R WCI  31
East Hampton   FAIR      39  24  53 W12G17    29.84S WCI  32
Southold         N/A     41  25  52 SW13        N/A
Montauk          N/A     41  26  55 SW13G21   29.83S
$$

NYZ052-065-067-201400-
Hudson Valley

CITY           SKY/WX    TMP DP  RH WIND       PRES   REMARKS
White Plains   FAIR      37  21  52 W9        29.83S WCI  30
Larchmont Harb   N/A     39 N/A N/A SW21        N/A  WCI  29
Croton On Huds   N/A     36 N/A N/A S7          N/A  WCI  30
Somers           N/A     34  23  64 SW6         N/A  WCI  29
Brewster         N/A     27  21  80 SE1         N/A
Newburgh       PTCLDY    36  23  60 W6        29.82S WCI  31
Montgomery     FAIR      32  21  64 SW10      29.80S WCI  24
Otisville        N/A     34  23  64 SW5         N/A  WCI  30
Warwick          N/A     39  25  56 W10         N/A  WCI  32
Suffern          N/A     37  23  56 SW7         N/A  WCI  32
Poughkeepsie   FAIR      34  21  59 SW7       29.82R WCI  28
Albany         MOCLDY    32  20  61 S6        29.77R WCI  26
$$

NJZ001-105-106-008-010-013-015-019>022-104-201400-
New Jersey

CITY           SKY/WX    TMP DP  RH WIND       PRES   REMARKS
Newark/Liberty MOCLDY    34  21  59 SW8       29.88S WCI  27
Teterboro      FAIR      35  22  58 S7        29.87R WCI  29
Caldwell       FAIR      35  21  56 VRB6      29.87S WCI  30
Somerville     FAIR      32  23  69 S5        29.88S WCI  27
Linden         FAIR      37  20  51 CALM      29.89S
Perth Amboy      N/A     37 N/A N/A W12G17      N/A  WCI  30
Sussex         FAIR      32  21  64 SW7       29.83S WCI  26
Andover          N/A     35  22  58 VRB7      29.86R WCI  29
Trenton        FAIR      37  22  54 SW7       29.91S WCI  32
Millville      FAIR      31  20  63 SW6       29.99R WCI  25
Atlantic City  FAIR      33  19  56 SW9       29.98R WCI  25
Wrightstown    FAIR      38  22  51 W6        29.91R WCI  34
Toms River     FAIR      36  22  56 SW7       29.95  WCI  30
Belmar         FAIR      42  23  46 SW16      29.92S
$$

PAZ047>061-062-071-201400-
Eastern Pennsylvania

CITY           SKY/WX    TMP DP  RH WIND       PRES   REMARKS
Philadelphia   MOCLDY    34  21  59 W10       29.97R WCI  26
Allentown      FAIR      33  21  61 SW9       29.90R WCI  25
Scranton       FAIR      37  24  59 SW12      29.85R WCI  29
$$

CTZ002-004>006-009-010-012-RIZ004-006-007-MAZ004-011-015-201400-
Southern New England

 In CT

CITY           SKY/WX    TMP DP  RH WIND       PRES   REMARKS
Bradley Intl   MOCLDY    34  21  59 SW13      29.74F WCI  25
Hartford       FAIR      34  22  61 S9        29.78S WCI  27
Danbury        FAIR      34  21  59 W7        29.82R WCI  28
Wtrbury/Oxford FAIR      28  21  75 W7        29.79S WCI  21
Norwalk Harbor   N/A     37 N/A N/A SW18        N/A  WCI  27
Bridgeport     FAIR      36  26  67 SW10      29.83S WCI  28
Meriden        FAIR      31  22  69 SE7       29.80F WCI  24
New Haven      MOCLDY    37  27  67 W12       29.82F WCI  29
Chester        FAIR      37  23  56 SW14G22   29.78F WCI  29
Groton         FAIR      38  28  67 SW16G22   29.80S WCI  29
Willimantic    FAIR      36  22  56 SW10      29.76F WCI  28

 In RI

CITY           SKY/WX    TMP DP  RH WIND       PRES   REMARKS
Providence     MOCLDY    38  24  57 SW15      29.76S WCI  29
Block Island   FAIR      39  30  70 SW25G32   29.82S WCI  28
Westerly       FAIR      40  26  57 SW15G26   29.80F WCI  32

In MA

CITY           SKY/WX    TMP DP  RH WIND       PRES   REMARKS
Boston         MOCLDY    36  23  59 SW21      29.69F WCI  25
Worcester      FAIR      32  19  58 SW25G33   29.65F WCI  19
Westfield      FAIR      23  19  85 NW5       29.74R WCI  17
Provincetown   FAIR      38  30  73 SW22G28   29.71F WCI  27
Nantucket      FAIR      40  37  89 SW18      29.80F WCI  31
$$

ANZ330-335-338-340-345-350-353-355-201400-
Coastal Marine Observations


STATION/POSITION TIME  SKY/WX   TEMP    WIND        PRES    VSBY  WAVE
                                AIR SEA DIR/SP/G                  HT/PER
                 (UTC)          (F)     (DEG/KT/KT) (MB)    (MI)  (FT/S)
NY Harb Entrance 1150            41 40  230/ 17/ 21 1011.8          3/ 5
20 S Fire Island 1150            42 42  240/ 19/ 23 1012.4          4/ 6
15 E Barnegat Li 1230               43                N/A           3/11
Hudson Canyon    1150            47 48  240/ 16/ 17 1014.3          5/ 6
Kings Point      1230            40 31  260/ 15/ 18 1012.0
Execution Rocks  NOT AVBL
Western LI Sound NOT AVBL
Central LI Sound 1245            38     220/ 14/ 17   N/A           2
Robbins Reef     1230            38     250/ 12/ 15 1012.4
$$


>>>>>>>>>>>>>>>>>>>>>>>>>>>> KEY <<<<<<<<<<<<<<<<<<<<<<<<<<<
>                                                          <
>     SKY/WX - Sky Condition/Present Weather               <
>     TMP    - Temperature in Fahrenheit                   <
>     DP     - Dew Point in Fahrenheit                     <
>     RH     - Relative Humidity in Percent                <
>     WIND   - Direction (from) and Speed in MPH           <
>     PRES   - Mean Sea Level Pressure (inches of Hg)      <
>     WCI    - Wind Chill Index                            <
>     VSB    - Visibility in Miles                         <
>     HX     - Heat Index                                  <
>     TC     - Temperature in Celsius                      <
>     VRB    - Varibale Wind Direction                     <
>                                                          <
>>>>>>>>>>>>>>>>>>>>>>>>>>>> KEY <<<<<<<<<<<<<<<<<<<<<<<<<<<




USA.gov is the U.S. government's official web portal to all federal, state and local government web resources and services.